www.pogodaiklimat.ru
ПОГОДА в Найроби Уилсон

Архив погоды в Найроби Уилсон (Кения)

Время
(UTC), дата
09 7.04
12 7.04
15 7.04
18 7.04
21 7.04
00 8.04
03 8.04
06 8.04
09 8.04
12 8.04
15 8.04
18 8.04
21 8.04
00 9.04
03 9.04
06 9.04
09 9.04
12 9.04
15 9.04
18 9.04
21 9.04
00 10.04
03 10.04
06 10.04
09 10.04
12 10.04
15 10.04
18 10.04
21 10.04
00 11.04
03 11.04
06 11.04
09 11.04
12 11.04
15 11.04
18 11.04
21 11.04
00 12.04
03 12.04
06 12.04
09 12.04
12 12.04
15 12.04
18 12.04
21 12.04
00 13.04
03 13.04
06 13.04
09 13.04
12 13.04
15 13.04
18 13.04
21 13.04
00 14.04
03 14.04
06 14.04
Ветер
(напр.,м/с)
Видим. Явления Облачность Т
(С)
Тd
(С)
f
(%)
Тe
(С)
Тes
(С)
Комфортность P
(гПа)
Po
(гПа)
Тmin
(С)
Tmax
(С)
R
(мм)
R24
(мм)
S
(см)
СВ 6 20 км 4/4 800 м
[Cu med, cong]
+24.6 +14.5 54 +28 +32 душно 1022.0 834.6
В 6 20 км 6/6 800 м
[Cu med, cong]
+26.2 +14.9 50 +29 +31 жарко 1019.0 831.6
СВ 5 20 км 6/6 800 м
[Cu med, cong]
+24.9 +14.7 53 +28 +28 жарко 1019.0 831.6
СВ 4 20 км 6/6 700 м
[Sc]
+22.0 +17.1 74 +26 +26 душно 1021.0 833.7 +26.5
штиль 0 20 км слаб. дождь 9/5 600 м
[Sc As op]
+17.7 +15.8 89 +18 +18 1023.0 834.9
штиль 0 20 км 8/5 600 м
[Sc Ac trans]
+17.4 +15.7 94 +17 +17 1021.0 834.0 10
штиль 0 20 км 9/5 600 м
[Sc Ac trans]
+17.6 +16.3 92 +18 +18 1021.0 834.2
штиль 0 9000 м 8/6 600 м
[Cu med, cong Ac trans Ci fib]
+19.3 +15.7 80 +21 +24 комфорт 1023.0 835.3 +17.5 9
штиль 0 9000 м 8/6 800 м
[Cu med, cong Ac trans Ci fib]
+24.0 +16.3 62 +27 +36 жарко 1022.0 834.7
В 3 20 км 8/6 800 м
[Cu med, cong]
+25.6 +15.5 54 +29 +32 душно 1019.0 831.6
СВ 4 20 км 6/6 720 м
[Cu med, cong]
+23.0 +11.9 50 +26 +26 жарко 1019.0 831.9
СВ 4 20 км 6/6 660 м
[Sc]
+20.3 +15.5 78 +22 +22 комфорт 1020.0 833.5 +26.0
штиль 0 10 км 8/8 600 м +18.0 +16.0 88 +18 +18 1022.0 836.6
штиль 0 20 км слаб. дождь 8/5 600 м
[Sc As op]
+18.0 +15.0 83 +18 +18 1021.0 835.8 0.0
штиль 0 20 км слаб. дождь 8/5 600 м
[Sc As op]
+17.0 +15.4 90 +17 +17 1023.0 835.2
штиль 0 9000 м слаб. дождь 9/5 210 м
[Sc As op]
+17.3 +15.1 88 +17 +20 1024.0 836.5 +16.7 9
С 5 30 км 9/3 750 м
[Cu hum Ac trans]
+22.6 +14.4 60 +26 +30 жарко 1023.0 835.1
СВ 6 30 км 9/3 870 м
[Cu hum Ac trans]
+27.1 +13.5 45 +29 +31 жарко 1020.0 832.5 0.0
В 6 30 км 5/1 800 м
[Cu med, cong Ac trans]
+24.2 +13.3 50 +26 +26 жарко 1019.0 832.3
штиль 0 20 км 3/3 660 м
[Cb cap Ac trans]
+21.0 +14.6 69 +24 +24 комфорт 1022.0 834.6 +27.3
штиль 0 20 км 9/6 660 м
[Sc Ac trans]
+19.8 +14.9 73 +22 +22 комфорт 1023.0 835.6
штиль 0 20 км 9/6 630 м
[Sc Ac trans]
+19.4 +15.9 80 +21 +21 комфорт 1022.0 834.3
штиль 0 20 км 4/1 600 м
[Sc Ac trans]
+18.4 +16.0 88 +18 +18 1021.0 834.0
штиль 0 30 км 8/1 700 м
[Cu hum Ac trans]
+20.7 +15.6 73 +24 +30 комфорт 1023.0 835.6 +17.1 0.0
штиль 0 30 км 6/4 800 м
[Cu med, cong Ac trans Ci fib]
+25.6 +13.1 45 +28 +42 жарко 1023.0 834.9
В 9 30 км 6/6 840 м
[Cu med, cong]
+27.2 +13.8 44 +29 +30 жарко 1019.0 831.7
СВ 5 30 км 8/6 750 м
[Cu med, cong Ac trans Ci fib]
+24.4 +13.8 54 +26 +26 жарко 1019.0 831.7
СВ 3 30 км 5/4 700 м
[Sc Ac trans Ci fib]
+21.6 +15.0 64 +25 +25 комфорт 1021.0 833.4 +27.9
штиль 0 30 км в посл. час дождь 6/6 600 м
[Sc Ac trans Ci fib]
+19.8 +16.6 82 +22 +22 комфорт 1023.0 835.5
штиль 0 20 км н/о +19.0 +15.6 83 +20 +20 1022.0 834.4 0.0
штиль 0 20 км 8/6 600 м
[Sc Ac trans Ci fib]
+17.8 +15.5 88 +18 +18 1022.0 834.8
штиль 0 30 км 8/3 660 м
[Sc Ac trans Ci fib]
+20.4 +16.5 78 +23 +28 комфорт 1025.0 836.7 +17.1 6
штиль 0 30 км 8/6 800 м
[Cu med, cong Ac trans Ci fib]
+25.1 +14.6 52 +28 +36 жарко 1024.0 835.8
СВ 5 30 км 6/6 840 м
[Cu med, cong]
+26.7 +13.5 44 +29 +31 жарко 1020.0 832.8
В 5 30 км 4/4 750 м
[Sc]
+23.8 +14.8 57 +27 +27 жарко 1020.0 832.5
В 4 30 км 6/6 720 м
[Sc]
+22.1 +16.5 71 +26 +26 душно 1022.0 834.3 +27.2
штиль 0 30 км 9/5 600 м
[Sc As trans]
+20.2 +17.3 83 +23 +23 комфорт 1023.0 835.0
штиль 0 20 км слаб. дождь 9/5 600 м
[Sc As op]
+18.0 +17.0 94 +18 +18 1022.0 836.7 4
штиль 0 20 км слаб. дождь 9/5 600 м
[Sc As op]
+17.0 +15.6 91 +17 +17 1023.0 834.8
штиль 0 30 км {дождь} 9/5 600 м
[Sc Ac trans]
+19.9 +16.3 78 +22 +25 комфорт 1024.0 836.1 +16.9 52
ЮВ 5 30 км 8/8 800 м
[Cu med, cong]
+24.4 +15.9 61 +27 +29 жарко 1024.0 835.4
ЮВ 6 30 км 8/6 750 м
[Cb cap]
+24.7 +16.7 61 +28 +30 душно 1020.0 832.4
В 4 30 км 8/6 750 м
[Cb cap]
+23.7 +14.3 56 +26 +26 жарко 1019.0 831.9
Ю 5 30 км 9/9 600 м
[Sc]
+20.0 +17.3 84 +23 +23 комфорт 1022.0 834.4 +25.9
штиль 0 30 км в посл. час дождь 6/5 600 м
[Sc Ac trans Ci fib]
+19.0 +17.0 88 +20 +20 1022.0 834.5
штиль 0 20 км 8/4 600 м
[Sc Ac trans Ci fib]
+18.6 +16.8 88 +20 +20 1021.0 833.8 3
штиль 0 20 км слаб. дождь 9/5 600 м
[Sc As op]
+18.4 +17.2 93 +19 +19 1021.0 834.0
штиль 0 20 км слаб. дождь 10/5 180 м
[Sc As op]
+17.2 +15.9 94 +17 +17 1024.0 835.8 +16.5 36.0
ЮВ 3 20 км 8/8 720 м +22.3 +17.0 73 +26 +30 жарко 1023.0 835.2
В 4 30 км 9/9 800 м
[Cu med, cong]
+24.7 +15.5 57 +28 +29 душно 1020.0 832.5 0.0
В 5 25 км 8/6 800 м
[Cu med, cong Ci sp]
+24.6 +15.4 54 +28 +28 душно 1019.0 832.2
штиль 0 20 км 8/1 660 м
[Sc Ac trans]
+19.9 +15.9 78 +22 +22 комфорт 1023.0 835.0 +25.4
В 3 20 км 9/5 630 м
[Sc Ac trans]
+19.2 +16.4 84 +21 +21 комфорт 1023.0 835.3
В 4 20 км слаб. дождь 9/5 630 м
[Sc Ac trans]
+18.7 +16.9 88 +20 +20 1022.0 834.5 0.0
штиль 0 20 км 9/5 600 м
[Sc Ac trans]
+18.2 +16.8 94 +18 +18 1022.0 834.3
штиль 0 20 км 9/8 660 м
[Sc Ac trans]
+19.9 +16.2 79 +22 +24 комфорт 836.1 +17.2 0.0
Местоположение метеостанции Найроби Уилсон (Кения): широта -1.32 долгота 36.82 высота над уровнем моря 1679 м.
В архиве по умолчанию представлена погода в Найроби Уилсон за последнюю неделю. Архивные данные за месяц целиком и за предыдущие месяцы, начиная с января 2011 года, Вы можете получить, выбрав интересующий диапазон дат из раскрывающегося списка и нажав кнопку "Найти!".
*Определитесь, кто Вы:
Внимание! Время в таблицах - всемирное. Для получения местного времени необходимо прибавить поправку, которая равна 3 ч.
Некоторые строки с данными для отдельных станций могут быть выделены курсивом. Это означает, что фактические данные отсутствуют по различным причинам, а приведенные значения являются расчетными модельными данными для данного пункта наблюдений.
Смотрите также архив погоды в соседних городах и на ближайших метеорологических станциях:
Партнеры нашего сайта:      
Пояснения к столбцам:
  • Ветер - указаны скорость ветра в м/с - средняя за 10 мин, порывы в срок и между сроками (в фигурных скобках) и направление, откуда дует ветер: С - северный,
  • СВ - северо-восточный, В - восточный, ЮВ - юго-восточный, Ю - южный, ЮЗ - юго-западный, З - западный, СЗ - северо-западный.
  • Видимость - горизонтальная дальность видимости в метрах или километрах. При видимости от 1 до 10 км при отсутствии осадков обычно наблюдается дымка, при ухудшении видимости до 1 км и менее - туман. В сухую погоду видимость может ухудшаться дымом, пылью или мглою.
  • Явления - указаны атмосферные явления, наблюдавшиеся в срок или в последний час перед сроком; фигурными скобками обозначены явления, наблюдавшиеся между сроками (за 1-3 часа до срока); квадратными скобками обозначены град или гололедные отложения с указанием их диаметра в мм.
  • Облачность - указаны через наклонную черту общая и нижняя облачность в баллах и высота нижней границы облаков в метрах; квадратными скобками обозначены формы облаков: Ci - перистые, Cs - перисто-слоистые, Cc - перисто-кучевые, Ac - высококучевые, As - высокослоистые, Sc - слоисто-кучевые, Ns - слоисто-дождевые, Cu - кучевые, Cb - кучево-дождевые. Подробнее классификацию облаков см. в Атласе облаков (PDF).
  • T - Температура воздуха - температура, измеренная на высоте 2 м над землей.
  • Td - Температура точки росы - температура, при понижении до которой содержащийся в воздухе водяной пар достигнет насыщения.
  • f - Относительная влажность воздуха - влажноcть воздуха, измеренная на высоте 2 м над землей.
  • Te - Эффективная температура - температура, которую ощущает одетый по сезону человек в тени. Характеристика душности погоды. При расчете учитывается влияние влажности воздуха и скорости ветра на теплоощущения человека.
  • Tes - Эффективная температура на солнце - температура, которую ощущает человек, с поправкой на солнечный нагрев. Характеристика знойности погоды. Зависит от высоты солнца над горизонтом, облачности и скорости ветра. Ночью, в пасмурную погоду, а также при ветре 12 м/с и более поправка равна нулю.
  • P - Атмосферное давление - приведенное к уровню моря атмосферное давление.
  • Po - Атмосферное давление - измеренное на уровне метеостанции атмосферное давление.
  • Tmin - Минимальная температура - минимум температуры воздуха на высоте 2 м над землей.
  • Tmax - Максимальная температура - максимум температуры воздуха на высоте 2 м над землей.
  • R - Количество осадков - Количество выпавших осадков за период времени, мм. При наведении курсора мыши на число - период времени, за который выпало указанное количество осадков.
  • R24 - Количество осадков - Количество выпавших осадков за 24 часа, мм.
  • S - Снежный покров - Высота снежного покрова, см. При наведении курсора мыши на число - состояние снежного покрова и степень покрытия местности в баллах.